{"data":{"norad_id":68548,"epoch":"2026-09-20T03:58:19.490304Z","epoch_age_seconds":74147,"freshness":"FRESH","line1":"1 68548U 26070G   26263.16550336 -.00308699  00000+0 -95635-2 0  9990","line2":"2 68548  53.1559 175.4506 0005817  93.3104 266.8564 15.34177668 26384","mean_motion":15.34177668,"eccentricity":0.0005817,"inclination_deg":53.1559,"raan_deg":175.4506,"arg_perigee_deg":93.3104,"mean_anomaly_deg":266.8564,"bstar":-0.0095635,"rev_number":2638,"period_min":93.861358435573,"perigee_km":459.38443635681,"apogee_km":467.34383878025,"semimajor_km":6841.5011375685,"source":"CELESTRAK","updated_at":"2026-09-20T09:00:43.932761Z"}}